Location: Mount Cross
(36.6390°N, 79.4878°W)
Time: 12:18:26
(UTC+00:00)

Tiros 1 - Pass Details

Date: 02 April 2023
Orbit: 627 x 661 km, 48.4° (Epoch: 05 June)

Event Time Altitude Azimuth Distance (km) Brightness Sun altitude
Rises 13:28:50 0° 305° (NW) 2,991 10.1 28.2°
Reaches altitude 10° 13:31:12 10° 307° (NW) 2,076 9.3 28.7°
Maximum altitude 13:36:00 83° 35° (NE) 666 7.8 29.6°
Drops below altitude 10° 13:40:46 10° 124° (ESE) 2,056 11.2 30.5°
Sets 13:43:05 0° 125° (SE) 2,959 11.6 31.0°
